{"data":{"norad_id":52578,"epoch":"2026-05-25T01:00:38.255616Z","epoch_age_seconds":75409,"freshness":"FRESH","line1":"1 52578U 22051AU  26145.04210944 -.00000548  00000+0 -16348-4 0  9993","line2":"2 52578  53.2136 151.3608 0001229  69.7300 290.3825 15.08835945222904","mean_motion":15.08835945,"eccentricity":0.0001229,"inclination_deg":53.2136,"raan_deg":151.3608,"arg_perigee_deg":69.73,"mean_anomaly_deg":290.3825,"bstar":-1.6348e-5,"rev_number":22290,"period_min":95.437811166409,"perigee_km":538.90557448154,"apogee_km":540.60599252773,"semimajor_km":6917.8927835046,"source":"CELESTRAK","updated_at":"2026-05-25T13:38:17.193442Z"}}